Time,TemperatureF,DewpointF,PressureIn,WindDirection,WindDirectionDegrees,WindSpeedMPH,WindSpeedGustMPH,Humidity,HourlyPrecipIn,Conditions,Clouds,dailyrainin,SoftwareType,DateUTC
2013-07-18 05:30:00,81.0,-99.9,-100.00,South,178,8.0,8.0,-999,-99.99,,,-99.99,,2013-07-18 12:30:00,
2013-07-18 05:52:00,82.0,-99.9,-100.00,NNE,29,8.0,10.0,-999,-99.99,,,-99.99,,2013-07-18 12:52:00,
2013-07-18 06:01:00,82.0,-99.9,-100.00,NNE,29,8.0,10.0,-999,-99.99,,,-99.99,,2013-07-18 13:01:00,
2013-07-18 06:22:00,81.0,-99.9,-100.00,South,178,8.0,8.0,-999,-99.99,,,-99.99,,2013-07-18 13:22:00,
2013-07-18 07:12:00,83.0,-99.9,-100.00,South,184,9.0,12.0,-999,-99.99,,,-99.99,,2013-07-18 14:12:00,
2013-07-18 07:22:00,83.0,-99.9,-100.00,South,184,9.0,12.0,-999,-99.99,,,-99.99,,2013-07-18 14:22:00,
2013-07-18 09:30:00,98.0,-99.9,-100.00,SW,232,3.0,8.0,-999,-99.99,,,-99.99,,2013-07-18 16:30:00,
2013-07-18 10:11:00,98.0,-99.9,-100.00,WNW,299,5.0,8.0,-999,-99.99,,,-99.99,,2013-07-18 17:11:00,
2013-07-18 10:22:00,98.0,-99.9,-100.00,SW,232,3.0,8.0,-999,-99.99,,,-99.99,,2013-07-18 17:22:00,
2013-07-18 10:43:00,99.0,-99.9,-100.00,WSW,251,8.0,8.0,-999,-99.99,,,-99.99,,2013-07-18 17:43:00,
2013-07-18 11:12:00,97.0,-99.9,-100.00,SW,220,7.0,16.0,-999,-99.99,,,-99.99,,2013-07-18 18:12:00,
2013-07-18 13:10:00,102.0,-99.9,-100.00,WNW,287,2.0,7.0,-999,-99.99,,,-99.99,,2013-07-18 20:10:00,
2013-07-18 13:52:00,102.0,-99.9,-100.00,WNW,287,2.0,7.0,-999,-99.99,,,-99.99,,2013-07-18 20:52:00,
2013-07-18 14:01:00,102.0,-99.9,-100.00,WNW,287,2.0,7.0,-999,-99.99,,,-99.99,,2013-07-18 21:01:00,
2013-07-18 15:30:00,105.0,-99.9,-100.00,WSW,252,3.0,10.0,-999,-99.99,,,-99.99,,2013-07-18 22:30:00,
2013-07-18 15:53:00,105.0,-99.9,-100.00,SSW,202,9.0,9.0,-999,-99.99,,,-99.99,,2013-07-18 22:53:00,
2013-07-18 16:10:00,105.0,-99.9,-100.00,NW,313,5.0,8.0,-999,-99.99,,,-99.99,,2013-07-18 23:10:00,
2013-07-18 16:11:00,105.0,-99.9,-100.00,NW,308,6.0,12.0,-999,-99.99,,,-99.99,,2013-07-18 23:11:00,
2013-07-18 16:22:00,105.0,-99.9,-100.00,WSW,252,3.0,10.0,-999,-99.99,,,-99.99,,2013-07-18 23:22:00,
2013-07-18 16:42:00,105.0,-99.9,-100.00,NNE,21,8.0,13.0,-999,-99.99,,,-99.99,,2013-07-18 23:42:00,
2013-07-18 16:50:00,106.0,-99.9,-100.00,NNE,14,7.0,13.0,-999,-99.99,,,-99.99,,2013-07-18 23:50:00,
2013-07-18 16:52:00,105.0,-99.9,-100.00,NW,313,5.0,8.0,-999,-99.99,,,-99.99,,2013-07-18 23:52:00,
2013-07-18 17:01:00,105.0,-99.9,-100.00,NW,313,5.0,8.0,-999,-99.99,,,-99.99,,2013-07-19 00:01:00,
2013-07-18 18:52:00,106.0,-99.9,-100.00,NNW,345,3.0,10.0,-999,-99.99,,,-99.99,,2013-07-19 01:52:00,
2013-07-18 19:00:00,105.0,-99.9,-100.00,NW,325,7.0,8.0,-999,-99.99,,,-99.99,,2013-07-19 02:00:00,
2013-07-18 19:02:00,106.0,-99.9,-100.00,NNW,345,3.0,10.0,-999,-99.99,,,-99.99,,2013-07-19 02:02:00,
2013-07-18 19:11:00,106.0,-99.9,-100.00,NNW,345,3.0,10.0,-999,-99.99,,,-99.99,,2013-07-19 02:11:00,
2013-07-18 19:52:00,105.0,-99.9,-100.00,NW,325,7.0,8.0,-999,-99.99,,,-99.99,,2013-07-19 02:52:00,
2013-07-18 21:52:00,95.0,-99.9,-100.00,WSW,240,11.0,13.0,-999,-99.99,,,-99.99,,2013-07-19 04:52:00,
2013-07-18 22:02:00,95.0,-99.9,-100.00,WSW,240,11.0,13.0,-999,-99.99,,,-99.99,,2013-07-19 05:02:00,
2013-07-18 22:40:00,91.0,-99.9,-100.00,SSW,202,9.0,12.0,-999,-99.99,,,-99.99,,2013-07-19 05:40:00,
2013-07-18 22:43:00,92.0,-99.9,-100.00,WSW,246,12.0,15.0,-999,-99.99,,,-99.99,,2013-07-19 05:43:00,
2013-07-18 22:53:00,92.0,-99.9,-100.00,WSW,246,12.0,15.0,-999,-99.99,,,-99.99,,2013-07-19 05:53:00,
2013-07-18 23:01:00,92.0,-99.9,-100.00,SSW,210,12.0,12.0,-999,-99.99,,,-99.99,,2013-07-19 06:01:00,
2013-07-18 23:11:00,92.0,-99.9,-100.00,SSW,210,12.0,12.0,-999,-99.99,,,-99.99,,2013-07-19 06:11:00,
2013-07-18 23:22:00,91.0,-99.9,-100.00,SSW,202,9.0,12.0,-999,-99.99,,,-99.99,,2013-07-19 06:22:00,
2013-07-18 23:33:00,91.0,-99.9,-100.00,SSW,202,9.0,12.0,-999,-99.99,,,-99.99,,2013-07-19 06:33:00,